Location: Dreilärchen
(47.9312°N, 8.6113°E)
Time: 04:21:04
(UTC+00:00)

Kosmos-1104 - Visible Passes

Search period start: 28 January 2023 00:00
Search period end: 07 February 2023 00:00
Orbit: 954 x 1003 km, 82.9° (Epoch: 27 January)

Date Brightness Start Highest point End Pass type
(mag) Time Alt. Az. Time Alt. Az. Time Alt. Az.
28 Jan 6.6 18:32:26 10° N 18:36:57 36° NE 18:36:57 36° NE visible
28 Jan 7.5 20:18:02 10° NNW 20:21:45 30° NW 20:21:45 30° NW visible
29 Jan 7.5 17:15:14 10° NNE 17:18:04 13° ENE 17:19:23 12° ENE visible
29 Jan 5.9 18:58:34 10° N 19:04:12 65° NE 19:04:12 65° NE visible
29 Jan 8.1 20:45:05 10° NW 20:49:01 21° WNW 20:49:01 21° WNW visible
30 Jan 7.0 17:40:17 10° NNE 17:45:02 22° ENE 17:46:56 19° E visible
30 Jan 6.1 19:24:56 10° NNW 19:31:07 71° W 19:31:46 66° SW visible
30 Jan 8.6 21:13:13 10° NW 21:15:25 12° WNW 21:16:37 11° W visible
31 Jan 6.4 18:06:04 10° N 18:11:47 37° ENE 18:15:09 22° ESE visible
31 Jan 7.1 19:51:32 10° NNW 19:57:18 41° W 20:00:05 27° SW visible
01 Feb 9.1 06:01:28 10° ENE 06:01:50 10° ENE 06:02:11 10° ENE visible
01 Feb 5.9 18:32:10 10° N 18:38:21 63° ENE 18:44:34 10° SSE visible
01 Feb 8.0 20:18:29 10° NNW 20:23:18 24° W 20:28:08 10° SW visible
02 Feb 7.1 17:14:00 10° NNE 17:18:32 20° ENE 17:23:05 10° ESE visible
02 Feb 6.0 18:58:29 10° NNW 19:04:44 78° W 19:11:01 10° S visible
02 Feb 8.6 20:46:16 10° NW 20:49:07 14° WNW 20:51:59 10° WSW visible
03 Feb 6.6 17:39:43 10° N 17:45:20 34° ENE 17:50:58 10° SE visible
03 Feb 7.0 19:25:03 10° NNW 19:30:55 45° W 19:36:52 10° SSW visible
04 Feb 6.0 18:05:46 10° N 18:11:56 57° ENE 18:18:07 10° SSE visible
04 Feb 7.9 19:51:55 10° NNW 19:56:57 27° W 20:02:03 10° SW visible
05 Feb 8.7 05:57:27 10° ESE 06:01:15 17° E 06:05:03 10° NE visible
05 Feb 6.0 18:32:03 10° N 18:38:19 85° W 18:44:39 10° S visible
05 Feb 8.6 20:19:27 10° NW 20:22:49 15° WNW 20:26:12 10° WSW visible
06 Feb 6.7 17:13:22 10° N 17:18:52 31° ENE 17:24:22 10° SE visible
06 Feb 6.8 18:58:34 10° NNW 19:04:34 50° W 19:10:37 10° SSW visible
